FENGYUN 1C DEB, 38494

Orbit data source: Space-Track

FENGYUN 1C DEB, 38494 is space debris in SSO originally from a launch on Mon, 10 May 1999 UTC launched from the Taiyaun Space Center, China (TSC). Fengyun 1C debris stems from the Chinese weather satellite Fengyun-1C, which was intentionally destroyed by a Chinese anti-satellite missile in 2007. This event dramatically increased the amount of space debris, with thousands of trackable fragments posing hazards to satellites and human spaceflight. The Fengyun 1C debris cloud has become a focal point in discussions about space sustainability and the need for international regulations to prevent the creation of new debris.

Loading next visibility...
Identifier
38494, 1999-025ESD
Orbit
SSO
Country
Flag of CNCN / PRC
Related business
Manufacturer
Unknown
Mission
Spacecraft
Bus & Motor
Unknown
Mass
Unknown
Launch date (UTC)
1999-05-10 (27 years ago)
Launch vehicle
Unknown
Launch site
Taiyaun Space Center, China (TSC)
Object type
Payload
Rocket body
Debris
Shape & HBR
Unknown shape, 0.1 m
Radar Cross Section
Small (<0.1 m²)

Expand to show TLE details & history
Last TLE update: 2 days ago

TLE from 2 days ago
0 FENGYUN 1C DEB
1 38494U 99025ESD 26105.81994674  .00005834  00000-0  20134-2 0  9997
2 38494  98.4471  52.0437 0379498  18.9095 342.5738 14.02609430 88924
Epoch: 2026-04-15T19:40Z
TLE epoch observation values (Epoch: 2026-04-15T19:40:43.398Z)
Latitude
0.00002°
Longitude
-87.11349°
Altitude
625.639 km
Speed
7.681 km/s
True Right ascension
03h 28m 10s
True Declination
0° 00' 00"
Sunlit
Object was in daylight at epoch
Visualization orbit readout
Latitude
Unknown
Longitude
Unknown
Altitude
Unknown
Speed
Unknown
Apparent Right ascension
Unknown
Apparent Declination
Unknown
Sunlit
N/A
Visualization observer readout
Local Sidereal Time
02:03:05
Azimuth
Unknown
Elevation
Unknown
Doppler factor
Unknown
Orbital elements
Apogee altitude
1,157.455 km
Perigee altitude
606.418 km
Semi-major axis
7,260.074 km
Eccentricity
0.03795
Inclination
98.4471°
RAAN
52.0437°
Arg. of periapsis
18.9095°
True anomaly
341.20997°
Mean anomaly
342.5738°
Eccentric anomaly
341.89821°
Mean motion
3.50858 °/min
Orbital period
102.61 mins
BSTAR
0.0020134
Loading maneuver chart data...
Computing Atmospheric mass density...
Loading historical data...
Loading historical data...
Loading historical data...
Loading historical data...
Loading historical data...
Loading historical data...
Loading historical data...

Documentation

Showing up to 5 results
|